Time,TemperatureF,DewpointF,PressureIn,WindDirection,WindDirectionDegrees,WindSpeedMPH,WindSpeedGustMPH,Humidity,HourlyPrecipIn,Conditions,Clouds,dailyrainin,SolarRadiationWatts/m^2,SoftwareType,DateUTC
2013-02-25 00:01:00,33.0,32.0,-100.00,South,172,5.0,29.0,95,0.15,,,1.33,0.000000,,2013-02-25 08:01:00,
2013-02-25 00:11:00,33.0,32.0,-100.00,South,172,5.0,29.0,95,0.15,,,1.33,0.000000,,2013-02-25 08:11:00,
2013-02-25 00:21:00,33.0,32.0,-100.00,South,172,5.0,29.0,95,0.15,,,1.33,0.000000,,2013-02-25 08:21:00,
2013-02-25 01:52:00,32.0,31.0,-100.00,SSW,193,3.0,15.0,96,-99.99,,,1.36,0.000000,,2013-02-25 09:52:00,
2013-02-25 02:01:00,32.0,31.0,-100.00,SSW,193,3.0,15.0,96,-99.99,,,1.36,0.000000,,2013-02-25 10:01:00,
2013-02-25 02:11:00,32.0,31.0,-100.00,SSW,193,3.0,15.0,96,-99.99,,,1.36,0.000000,,2013-02-25 10:11:00,
2013-02-25 02:21:00,32.0,31.0,-100.00,SSW,193,3.0,15.0,96,-99.99,,,1.36,0.000000,,2013-02-25 10:21:00,
2013-02-25 02:52:00,32.0,31.0,-100.00,South,178,2.0,15.0,96,0.00,,,1.36,0.000000,,2013-02-25 10:52:00,
2013-02-25 03:01:00,32.0,31.0,-100.00,South,178,2.0,15.0,96,0.00,,,1.36,0.000000,,2013-02-25 11:01:00,
2013-02-25 03:11:00,32.0,31.0,-100.00,South,178,2.0,15.0,96,0.00,,,1.36,0.000000,,2013-02-25 11:11:00,
2013-02-25 03:21:00,32.0,31.0,-100.00,South,178,2.0,15.0,96,0.00,,,1.36,0.000000,,2013-02-25 11:21:00,
2013-02-25 11:52:00,33.0,30.0,-100.00,WSW,252,0.0,0.0,90,-99.99,,,1.33,57.000000,,2013-02-25 19:52:00,
2013-02-25 12:01:00,33.0,30.0,-100.00,WSW,252,0.0,0.0,90,-99.99,,,1.33,57.000000,,2013-02-25 20:01:00,
2013-02-25 12:11:00,33.0,30.0,-100.00,WSW,252,0.0,0.0,90,-99.99,,,1.33,57.000000,,2013-02-25 20:11:00,
2013-02-25 12:21:00,33.0,30.0,-100.00,WSW,252,0.0,0.0,90,-99.99,,,1.33,57.000000,,2013-02-25 20:21:00,
2013-02-25 12:52:00,35.0,32.0,-100.00,WSW,255,13.0,33.0,88,0.03,,,1.23,66.000000,,2013-02-25 20:52:00,
2013-02-25 13:01:00,35.0,32.0,-100.00,WSW,255,13.0,33.0,88,0.03,,,1.23,66.000000,,2013-02-25 21:01:00,
2013-02-25 13:11:00,35.0,32.0,-100.00,WSW,255,13.0,33.0,88,0.03,,,1.23,66.000000,,2013-02-25 21:11:00,
2013-02-25 13:21:00,35.0,32.0,-100.00,WSW,255,13.0,33.0,88,0.03,,,1.23,66.000000,,2013-02-25 21:21:00,
2013-02-25 13:52:00,36.0,32.0,-100.00,WSW,257,9.0,26.0,84,0.05,,,1.15,85.000000,,2013-02-25 21:52:00,
2013-02-25 14:01:00,36.0,32.0,-100.00,WSW,257,9.0,26.0,84,0.05,,,1.15,85.000000,,2013-02-25 22:01:00,
2013-02-25 14:11:00,36.0,32.0,-100.00,WSW,257,9.0,26.0,84,0.05,,,1.15,85.000000,,2013-02-25 22:11:00,
2013-02-25 14:21:00,36.0,32.0,-100.00,WSW,257,9.0,26.0,84,0.05,,,1.15,85.000000,,2013-02-25 22:21:00,
2013-02-25 14:52:00,33.0,30.0,-100.00,WSW,255,6.0,24.0,87,0.08,,,1.09,127.000000,,2013-02-25 22:52:00,
2013-02-25 15:01:00,33.0,30.0,-100.00,WSW,255,6.0,24.0,87,0.08,,,1.09,127.000000,,2013-02-25 23:01:00,
2013-02-25 15:11:00,33.0,30.0,-100.00,WSW,255,6.0,24.0,87,0.08,,,1.09,127.000000,,2013-02-25 23:11:00,
2013-02-25 15:22:00,33.0,30.0,-100.00,WSW,255,6.0,24.0,87,0.08,,,1.09,127.000000,,2013-02-25 23:22:00,
2013-02-25 15:52:00,34.0,30.0,-100.00,WSW,243,7.0,21.0,85,0.06,,,1.03,205.000000,,2013-02-25 23:52:00,
2013-02-25 16:01:00,34.0,30.0,-100.00,WSW,243,7.0,21.0,85,0.06,,,1.03,205.000000,,2013-02-26 00:01:00,
2013-02-25 16:11:00,34.0,30.0,-100.00,WSW,243,7.0,21.0,85,0.06,,,1.03,205.000000,,2013-02-26 00:11:00,
2013-02-25 16:21:00,34.0,30.0,-100.00,WSW,243,7.0,21.0,85,0.06,,,1.03,205.000000,,2013-02-26 00:21:00,
2013-02-25 16:52:00,33.0,30.0,-100.00,WSW,244,8.0,22.0,88,0.03,,,0.98,104.000000,,2013-02-26 00:52:00,
2013-02-25 17:02:00,33.0,30.0,-100.00,WSW,244,8.0,22.0,88,0.03,,,0.98,104.000000,,2013-02-26 01:02:00,
2013-02-25 17:11:00,33.0,30.0,-100.00,WSW,244,8.0,22.0,88,0.03,,,0.98,104.000000,,2013-02-26 01:11:00,
2013-02-25 17:21:00,33.0,30.0,-100.00,WSW,244,8.0,22.0,88,0.03,,,0.98,104.000000,,2013-02-26 01:21:00,
2013-02-25 17:52:00,32.0,29.0,-100.00,SW,231,4.0,24.0,88,0.00,,,0.91,35.000000,,2013-02-26 01:52:00,
2013-02-25 18:01:00,32.0,29.0,-100.00,SW,231,4.0,24.0,88,0.00,,,0.91,35.000000,,2013-02-26 02:01:00,
2013-02-25 18:11:00,32.0,29.0,-100.00,SW,231,4.0,24.0,88,0.00,,,0.91,35.000000,,2013-02-26 02:11:00,
2013-02-25 18:21:00,32.0,29.0,-100.00,SW,231,4.0,24.0,88,0.00,,,0.91,35.000000,,2013-02-26 02:21:00,
2013-02-25 18:52:00,31.0,28.0,-100.00,WSW,257,8.0,19.0,90,0.00,,,0.84,4.000000,,2013-02-26 02:52:00,
2013-02-25 19:01:00,31.0,28.0,-100.00,WSW,257,8.0,19.0,90,0.00,,,0.84,4.000000,,2013-02-26 03:01:00,
2013-02-25 19:11:00,31.0,28.0,-100.00,WSW,257,8.0,19.0,90,0.00,,,0.84,4.000000,,2013-02-26 03:11:00,
2013-02-25 19:21:00,31.0,28.0,-100.00,WSW,257,8.0,19.0,90,0.00,,,0.84,4.000000,,2013-02-26 03:21:00,
2013-02-25 19:52:00,31.0,28.0,-100.00,WSW,252,6.0,16.0,89,0.00,,,0.80,0.000000,,2013-02-26 03:52:00,
2013-02-25 20:01:00,31.0,28.0,-100.00,WSW,252,6.0,16.0,89,0.00,,,0.80,0.000000,,2013-02-26 04:01:00,
2013-02-25 20:11:00,31.0,28.0,-100.00,WSW,252,6.0,16.0,89,0.00,,,0.80,0.000000,,2013-02-26 04:11:00,
2013-02-25 20:21:00,31.0,28.0,-100.00,WSW,252,6.0,16.0,89,0.00,,,0.80,0.000000,,2013-02-26 04:21:00,
2013-02-25 20:52:00,31.0,28.0,-100.00,SW,223,3.0,18.0,89,0.00,,,0.73,0.000000,,2013-02-26 04:52:00,
2013-02-25 21:01:00,31.0,28.0,-100.00,SW,223,3.0,18.0,89,0.00,,,0.73,0.000000,,2013-02-26 05:01:00,
2013-02-25 21:11:00,31.0,28.0,-100.00,SW,223,3.0,18.0,89,0.00,,,0.73,0.000000,,2013-02-26 05:11:00,
2013-02-25 21:21:00,31.0,28.0,-100.00,SW,223,3.0,18.0,89,0.00,,,0.73,0.000000,,2013-02-26 05:21:00,
2013-02-25 21:52:00,31.0,28.0,-100.00,SSW,207,1.0,11.0,88,0.00,,,0.62,0.000000,,2013-02-26 05:52:00,
2013-02-25 22:01:00,31.0,28.0,-100.00,SSW,207,1.0,11.0,88,0.00,,,0.62,0.000000,,2013-02-26 06:01:00,
2013-02-25 22:11:00,31.0,28.0,-100.00,SSW,207,1.0,11.0,88,0.00,,,0.62,0.000000,,2013-02-26 06:11:00,
2013-02-25 22:21:00,31.0,28.0,-100.00,SSW,207,1.0,11.0,88,0.00,,,0.62,0.000000,,2013-02-26 06:21:00,
2013-02-25 22:52:00,31.0,28.0,-100.00,SSE,150,2.0,10.0,89,0.00,,,0.49,0.000000,,2013-02-26 06:52:00,
2013-02-25 23:01:00,31.0,28.0,-100.00,SSE,150,2.0,10.0,89,0.00,,,0.49,0.000000,,2013-02-26 07:01:00,
2013-02-25 23:11:00,31.0,28.0,-100.00,SSE,150,2.0,10.0,89,0.00,,,0.49,0.000000,,2013-02-26 07:11:00,
2013-02-25 23:22:00,31.0,28.0,-100.00,SSE,150,2.0,10.0,89,0.00,,,0.49,0.000000,,2013-02-26 07:22:00,
2013-02-25 23:52:00,30.0,28.0,-100.00,SSE,152,3.0,8.0,91,0.00,,,0.34,0.000000,,2013-02-26 07:52:00,